Temperature
26 23 22 23 23 24 25 25 25 26 28 27 26 24 24 23 22 21 20 20 20 20 20 21 21 21 20 20 19 19 19 19 18 18 18 19 19 19 19 19 19 19 19 19
23 23 25 26 27 27 26 26 25 26 27 26 24 23 22 21 20 19 18 18 18 18 19 19 20 20 20 19 19 19 19 18 18 18 18 18 18 19 19 19 19 19 19 19
24 26 28 28 27 27 27 26 26 26 25 24 24 21 20 19 19 18 17 16 17 17 17 18 18 18 19 19 18 18 18 18 18 18 18 18 18 18 18 18 19 19 18 18
25 27 27 27 27 27 25 27 26 26 23 21 22 20 19 18 18 17 16 15 15 16 16 16 17 17 18 18 18 18 17 17 18 18 18 18 18 18 18 18 18 18 18 18
24 25 26 26 27 27 26 26 25 24 22 21 20 19 18 18 17 16 16 15 15 15 15 16 16 16 16 17 17 16 16 17 17 17 17 17 18 18 18 18 18 17 17 17
25 26 26 26 27 27 27 25 22 19 19 20 20 19 18 17 16 16 16 15 15 15 15 15 16 16 16 16 16 16 16 16 16 16 16 17 17 17 17 17 17 17 17 17
23 25 25 26 26 26 25 21 20 20 18 19 19 18 17 17 17 16 16 15 15 16 16 16 16 16 16 16 15 15 15 15 15 15 15 15 15 16 16 16 16 16 16 16
22 23 24 25 25 24 25 22 20 20 19 18 18 18 17 17 16 16 16 16 16 16 16 16 16 15 15 15 15 15 15 15 15 15 15 15 14 14 14 14 14 14 14 15
22 22 25 26 26 25 24 22 21 19 19 18 17 17 16 16 16 16 16 16 16 16 16 16 15 15 15 15 15 15 14 14 14 14 13 13 13 13 13 13 13 13 13 13
22 23 24 25 24 24 23 22 19 19 19 19 18 17 16 16 16 16 16 16 16 16 16 16 15 15 15 15 14 14 14 14 13 13 13 13 12 12 12 12 12 12 12 12
23 22 22 22 23 23 22 22 19 17 18 18 18 17 17 16 15 15 15 16 16 16 16 16 16 15 15 15 14 14 14 13 13 13 12 12 12 11 11 11 11 11 11 11
23 19 20 21 22 23 22 22 19 19 19 18 17 16 17 15 15 16 16 17 17 16 16 16 16 15 15 14 14 14 13 13 13 12 12 12 11 11 11 11 11 10 10 10
22 19 19 20 20 21 21 21 20 17 16 17 16 17 16 16 16 16 17 17 17 16 16 16 15 15 14 14 14 13 13 13 12 12 12 11 11 11 11 10 10 10 10 10
22 19 19 20 20 21 21 21 20 18 16 17 17 17 16 15 15 16 16 16 16 16 15 15 14 14 14 14 13 13 13 12 12 12 11 11 11 11 11 10 10 10 10 10
20 20 21 21 22 21 21 20 20 19 18 17 17 16 15 15 15 16 16 16 15 15 14 14 14 14 13 13 13 13 12 12 12 12 11 11 11 11 10 10 10 10 10 10
18 20 19 20 21 20 19 20 20 19 18 18 16 15 15 15 15 15 15 15 14 14 14 14 13 13 13 13 12 12 12 12 11 11 11 11 11 10 10 10 10 10 10 9
19 19 19 19 20 20 17 18 18 18 16 16 15 14 14 14 14 15 15 15 14 14 14 13 13 13 12 12 12 12 12 11 11 11 11 10 10 10 10 10 10 9 9 9
19 18 17 18 18 19 18 19 19 17 15 15 15 15 14 14 15 15 15 14 14 14 13 13 13 12 12 12 11 11 11 11 11 10 10 10 10 10 10 9 9 9 9 9
19 19 18 17 18 18 18 18 18 17 15 15 15 14 14 14 14 13 14 14 13 13 13 12 12 12 11 11 11 10 10 10 10 10 9 9 9 9 9 9 9 9 9 9
18 17 17 17 19 18 17 18 19 17 15 14 14 13 14 13 10 11 14 13 13 12 12 11 11 11 10 10 10 9 9 9 9 9 8 8 8 8 8 8 8 8 8 8
19 17 16 17 17 17 17 18 17 15 14 14 15 14 14 12 12 13 13 13 12 11 11 10 10 9 9 9 8 8 8 8 7 7 7 7 7 7 7 7 7 8 8 8
17 17 16 16 16 16 17 17 15 14 15 15 15 14 14 13 13 13 12 12 11 10 10 9 9 8 8 7 7 7 7 6 6 6 6 6 6 6 6 6 6 7 7 7
17 16 15 15 15 16 17 16 16 15 15 14 14 14 13 13 12 12 11 10 10 9 9 8 7 7 7 6 6 6 6 5 5 5 5 5 5 6 6 6 6 6 6 6
18 17 15 15 15 16 16 16 15 15 14 14 14 13 13 12 12 11 10 9 9 8 8 7 7 6 6 6 5 5 5 5 5 5 5 5 5 5 5 5 5 5 6 6
18 17 15 15 15 16 16 15 15 15 14 14 13 13 12 11 11 10 9 8 8 7 7 6 6 6 5 5 5 5 5 4 4 4 4 4 5 5 5 5 5 5 5 6
16 15 15 14 15 14 15 15 15 14 14 13 13 12 11 11 10 9 8 8 7 7 6 6 5 5 5 5 5 5 4 4 4 4 4 4 4 4 4 5 5 5 5 5
Wind_Speed
2 2 6 11 10 11 8 6 6 7 7 6 7 9 10 11 11 10 10 10 11 10 11 13 14 14 12 11 8 6 6 5 4 1 1 1 1 1 2 3 4 6 6 6
4 6 13 12 8 5 3 4 5 6 8 8 9 12 14 16 15 12 13 13 12 10 12 12 11 9 8 8 6 4 2 4 4 2 1 1 1 1 2 3 4 6 6 6
7 6 6 5 6 5 4 2 3 4 6 9 8 8 11 12 17 18 17 13 12 11 10 9 8 6 6 5 4 2 2 1 4 3 1 1 2 1 1 1 2 3 5 6
2 5 7 7 6 4 4 4 4 5 5 4 5 2 5 6 14 16 15 13 12 12 11 10 10 10 9 7 6 5 3 2 2 1 1 0 1 1 2 2 2 2 4 4
5 5 6 5 4 4 3 2 3 3 2 2 4 4 2 4 9 11 11 12 11 11 11 12 12 11 11 10 9 8 8 8 7 6 4 2 2 1 1 0 1 1 2 3
4 3 3 3 5 4 1 5 7 7 6 3 3 3 3 3 3 5 8 9 9 8 9 10 10 10 11 10 9 9 9 9 9 9 8 6 5 4 3 3 1 1 2 2
7 7 5 2 4 7 5 6 5 7 6 3 1 4 1 1 5 6 6 6 5 5 6 7 8 9 8 8 8 7 8 7 7 8 8 7 6 5 4 3 3 3 2 2
1 6 5 3 1 3 3 6 5 3 4 3 2 2 3 3 4 5 5 5 5 4 4 5 5 5 5 5 5 5 5 5 5 6 6 6 6 4 4 4 3 3 3 3
4 5 5 5 4 1 2 2 5 6 0 2 0 0 1 3 3 4 4 4 4 4 4 4 3 3 3 3 2 3 3 2 3 3 3 3 4 4 4 5 4 4 4 4
5 3 5 5 5 5 3 2 5 4 2 1 2 3 5 8 8 5 4 4 3 3 3 4 4 4 4 4 3 2 2 1 1 1 2 2 2 3 3 4 5 5 5 5
4 3 5 6 4 3 5 4 4 2 4 4 3 5 3 8 8 7 5 5 5 5 5 5 5 5 5 5 4 4 4 3 4 4 4 4 5 5 4 4 5 5 5 6
3 4 2 5 5 0 1 1 3 2 3 2 3 4 1 4 5 6 5 4 4 4 5 6 6 6 5 6 6 6 7 7 8 8 7 7 7 7 7 7 8 7 7 7
4 5 4 9 9 6 5 4 1 4 3 3 1 3 2 2 3 3 2 2 3 5 6 5 5 5 6 7 7 8 8 9 9 9 8 9 9 8 9 9 9 8 8 8
5 5 4 3 7 4 4 8 7 6 4 2 0 2 1 2 1 2 3 5 7 7 5 5 5 6 7 8 9 9 10 10 10 9 9 10 11 11 11 10 10 10 9 9
6 3 3 3 2 8 10 9 10 8 5 3 0 3 1 1 2 4 5 7 7 6 5 6 6 7 8 9 9 9 10 10 10 10 10 12 12 11 11 11 11 11 10 11
5 3 6 5 5 11 11 9 7 6 5 3 5 3 2 2 4 6 8 8 7 7 8 9 9 9 9 9 10 10 10 11 10 10 11 11 11 11 11 11 11 10 10 10
3 3 4 5 5 4 6 6 6 5 5 4 3 1 4 6 7 8 8 8 9 10 10 10 10 10 10 10 11 11 11 10 10 10 11 11 11 11 11 11 10 10 10 10
5 3 3 2 7 4 3 1 5 6 5 5 2 3 5 7 8 8 8 8 10 11 11 11 10 11 10 10 10 10 10 9 10 10 10 10 10 10 10 10 10 10 8 8
5 5 3 3 2 2 0 3 3 1 2 2 3 6 8 8 7 7 9 9 11 12 12 11 11 12 11 11 11 10 10 10 10 10 10 10 9 10 9 10 10 9 7 8
5 6 5 3 1 4 3 4 4 1 3 2 4 6 8 8 9 8 9 11 11 12 11 11 11 11 11 11 10 10 11 11 11 11 10 10 9 9 10 10 10 8 8 9
4 5 5 3 1 3 4 4 4 2 6 6 5 7 7 6 8 10 12 11 11 11 11 11 11 10 10 11 10 11 11 11 11 10 10 9 9 9 10 9 8 8 8 8
4 3 2 2 2 5 3 3 2 5 5 5 6 6 8 10 11 11 11 11 11 11 11 11 10 10 11 11 11 12 13 13 12 11 11 11 10 11 11 8 8 7 7 7
4 7 6 6 5 4 2 5 4 5 4 5 6 8 8 9 10 10 10 10 10 11 11 11 12 13 13 12 12 14 14 13 13 13 12 12 12 10 10 9 9 8 7 7
2 3 4 3 2 4 4 3 1 2 3 5 6 8 8 9 10 10 9 10 11 10 12 11 13 15 15 14 14 14 15 14 13 13 13 11 11 11 10 8 8 7 7 7
4 3 4 2 1 0 2 3 3 3 5 6 8 7 8 8 9 9 9 11 11 11 11 12 14 16 17 16 16 16 15 14 14 14 12 11 10 10 9 8 8 8 8 8
1 5 6 5 6 4 5 5 3 4 6 7 8 8 8 7 9 9 10 10 11 14 14 15 16 16 17 18 18 16 15 14 14 12 11 9 8 8 7 7 8 10 11 12
Wind_Direction
301 112 250 248 221 221 247 274 297 301 322 33 57 63 53 49 60 63 61 63 68 60 50 53 60 65 71 69 66 46 41 31 21 37 146 162 190 187 156 149 154 145 145 144
339 262 251 258 271 254 285 346 336 327 351 33 56 59 53 49 49 53 63 63 66 68 58 52 55 65 76 84 95 99 79 74 57 329 286 225 221 211 187 165 167 159 158 164
224 261 304 323 326 348 350 349 345 338 8 32 59 40 40 47 50 51 52 54 55 64 69 65 58 50 59 73 87 86 76 144 164 187 267 31 51 32 52 153 186 190 176 178
319 329 350 343 335 357 324 325 22 23 44 358 48 49 15 33 52 49 47 48 47 44 51 59 58 46 45 47 59 63 56 36 38 79 90 134 155 190 217 204 197 203 201 198
324 333 342 328 315 325 268 340 32 26 83 52 31 97 333 16 48 45 48 53 53 51 53 58 57 50 48 51 57 53 42 30 18 23 40 54 50 28 342 60 119 233 253 239
294 301 291 273 304 306 311 28 26 39 58 27 340 106 338 4 60 67 65 67 66 66 64 63 61 60 57 56 56 53 47 33 24 27 31 41 46 35 33 24 14 320 299 294
331 328 320 312 342 337 37 62 18 357 5 278 24 103 206 122 114 114 111 104 96 84 77 72 65 63 62 60 58 57 54 39 26 29 28 27 27 26 23 8 356 351 336 318
308 312 306 317 222 250 305 126 147 222 246 270 22 151 200 153 134 131 126 124 115 104 97 96 91 88 84 78 70 65 61 45 27 27 22 21 21 21 11 2 350 343 325 303
192 260 291 313 312 129 5 319 182 155 81 80 213 163 189 171 178 168 156 142 140 142 139 136 130 127 126 115 105 98 84 53 25 21 10 9 7 7 357 348 342 332 325 321
168 235 314 326 24 21 120 146 62 71 74 334 263 227 213 193 200 193 173 170 172 163 166 173 177 175 171 169 166 147 132 158 275 317 322 328 324 321 320 326 324 319 317 323
102 96 325 356 8 330 1 26 72 103 157 157 240 263 258 185 184 180 187 188 182 191 201 209 207 200 192 185 183 191 201 213 230 236 236 248 258 264 272 278 281 285 290 300
59 98 337 299 291 292 48 294 144 143 289 145 160 261 284 162 168 175 192 207 211 221 227 226 223 218 210 213 219 224 227 231 236 235 234 238 247 255 262 266 269 271 276 280
81 85 26 346 346 354 2 346 32 128 95 72 95 274 203 185 191 198 204 263 285 287 283 274 268 257 247 244 244 244 243 243 245 242 242 246 249 250 252 256 260 262 263 268
97 84 138 219 269 299 23 36 38 80 86 64 171 225 209 227 260 332 331 317 311 314 319 317 297 279 267 260 256 254 254 250 249 244 241 244 247 246 246 249 251 252 252 256
83 59 329 288 51 75 68 60 62 74 93 111 72 120 55 29 356 339 327 322 325 327 323 309 288 272 266 266 264 258 256 255 251 246 242 243 244 243 244 245 248 249 248 251
73 61 12 355 88 91 70 47 48 60 55 77 99 83 355 346 351 335 324 319 310 298 294 292 287 279 273 267 263 260 257 254 248 244 244 244 242 241 240 242 243 243 244 246
80 78 44 327 321 84 38 17 40 45 32 75 100 284 314 329 326 311 304 298 289 289 291 289 283 272 269 266 264 263 260 257 252 249 248 246 243 242 241 242 240 236 237 236
131 109 114 350 23 34 229 25 67 92 81 75 92 303 301 293 287 284 290 289 294 295 294 289 282 277 273 270 272 271 269 265 261 259 257 254 250 247 245 241 239 237 233 230
137 132 99 84 40 168 257 13 14 316 195 35 339 315 310 304 313 300 285 285 285 287 285 283 282 282 283 283 282 283 280 275 271 267 263 260 255 254 252 247 242 238 231 230
47 76 92 75 49 247 251 308 307 341 231 291 343 321 310 326 325 297 288 287 286 288 290 291 292 293 294 292 292 290 287 285 280 276 273 267 260 255 252 249 244 240 233 234
22 36 66 76 326 257 272 311 34 56 273 291 298 298 300 294 271 279 292 296 295 297 298 299 300 299 295 295 296 291 289 283 280 279 277 274 268 264 258 250 244 240 238 237
125 104 91 90 19 274 298 55 92 236 257 280 290 292 291 284 284 292 301 304 306 307 306 305 302 297 295 296 296 292 288 285 283 280 277 273 268 269 274 255 247 240 234 234
141 173 177 175 206 225 116 140 193 212 262 284 290 296 296 299 300 306 307 309 309 308 307 305 304 305 303 299 295 293 292 291 290 285 280 277 274 266 261 253 248 245 237 234
252 156 110 110 157 159 143 149 264 285 295 299 302 305 309 308 309 313 313 312 312 310 310 311 311 309 306 302 298 293 293 291 287 284 281 276 274 270 262 254 245 241 236 231
207 130 104 135 210 158 329 331 325 339 335 327 320 314 316 318 317 315 316 315 315 313 311 311 311 310 309 308 304 299 296 292 285 280 277 274 269 265 259 252 245 240 235 226
201 151 153 211 219 198 255 278 333 353 334 324 325 324 323 324 320 322 319 315 314 316 316 317 315 314 313 310 307 303 299 295 290 284 278 271 265 261 254 253 259 248 239 239
Height
1494 1500 1503 1497 1493 1493 1492 1494 1494 1484 1471 1473 1478 1483 1484 1483 1483 1485 1486 1486 1487 1490 1491 1490 1490 1491 1492 1493 1495 1494 1497 1496 1497 1497 1501 1504 1506 1508 1507 1508 1511 1511 1511 1511
1500 1501 1489 1484 1483 1484 1487 1491 1491 1483 1473 1476 1485 1492 1493 1492 1493 1493 1492 1492 1491 1491 1491 1491 1492 1493 1492 1493 1493 1493 1492 1495 1496 1497 1500 1503 1505 1506 1506 1506 1508 1508 1508 1508
1499 1491 1481 1481 1483 1485 1486 1489 1488 1486 1481 1481 1487 1501 1501 1500 1498 1498 1498 1498 1498 1496 1494 1494 1493 1494 1494 1493 1493 1493 1495 1495 1496 1497 1500 1501 1503 1504 1504 1504 1505 1505 1505 1506
1491 1485 1483 1483 1484 1484 1492 1481 1480 1483 1493 1504 1498 1517 1511 1506 1504 1504 1505 1503 1502 1501 1500 1497 1496 1496 1495 1495 1494 1494 1494 1496 1496 1497 1499 1500 1501 1502 1502 1501 1501 1502 1503 1503
1494 1487 1486 1487 1483 1481 1483 1478 1480 1484 1494 1505 1506 1516 1519 1510 1511 1512 1510 1508 1506 1505 1504 1501 1499 1499 1498 1497 1497 1497 1497 1497 1496 1497 1497 1498 1499 1499 1499 1498 1498 1499 1499 1499
1489 1484 1484 1482 1478 1477 1476 1481 1488 1496 1505 1519 1514 1519 1524 1518 1515 1514 1513 1511 1509 1508 1506 1504 1503 1502 1501 1500 1500 1500 1499 1497 1497 1497 1496 1496 1496 1496 1495 1495 1495 1495 1495 1495
1496 1487 1482 1480 1482 1479 1481 1500 1520 1522 1531 1529 1516 1521 1524 1515 1512 1512 1512 1511 1509 1508 1505 1505 1504 1503 1503 1503 1502 1502 1501 1500 1499 1498 1496 1495 1493 1492 1491 1491 1491 1490 1490 1490
1509 1507 1487 1482 1484 1487 1485 1497 1522 1532 1533 1528 1520 1523 1520 1513 1512 1511 1510 1510 1510 1508 1507 1506 1505 1505 1504 1504 1503 1502 1501 1500 1499 1497 1495 1494 1492 1490 1488 1487 1487 1486 1485 1484
1510 1507 1486 1481 1479 1481 1489 1495 1497 1515 1517 1528 1528 1523 1519 1514 1513 1512 1511 1510 1509 1508 1507 1507 1506 1505 1505 1504 1503 1502 1500 1499 1497 1496 1494 1492 1490 1488 1486 1485 1483 1482 1480 1480
1497 1504 1491 1484 1481 1483 1486 1491 1503 1515 1526 1532 1528 1524 1522 1516 1513 1511 1510 1510 1510 1509 1508 1506 1505 1504 1503 1502 1500 1499 1498 1496 1495 1493 1491 1489 1487 1485 1483 1481 1480 1478 1476 1474
1490 1503 1500 1493 1493 1494 1491 1494 1503 1513 1516 1528 1533 1529 1510 1510 1509 1510 1510 1510 1509 1508 1507 1505 1503 1501 1500 1498 1497 1496 1494 1493 1491 1489 1487 1486 1484 1482 1479 1477 1475 1473 1471 1469
1491 1505 1511 1501 1490 1487 1489 1493 1501 1515 1516 1518 1528 1528 1509 1509 1509 1510 1510 1509 1508 1506 1504 1502 1500 1498 1496 1494 1493 1491 1489 1488 1486 1484 1482 1480 1478 1476 1474 1472 1470 1468 1466 1464
1492 1507 1521 1516 1507 1495 1495 1492 1494 1505 1515 1521 1529 1526 1510 1510 1510 1510 1509 1508 1506 1504 1501 1499 1496 1494 1492 1490 1488 1486 1484 1481 1479 1477 1475 1473 1471 1469 1468 1466 1464 1463 1461 1459
1490 1506 1517 1524 1516 1502 1501 1499 1496 1505 1520 1522 1519 1518 1514 1512 1511 1510 1509 1507 1505 1502 1499 1496 1493 1491 1488 1486 1483 1480 1477 1475 1472 1470 1467 1466 1464 1463 1461 1460 1458 1457 1455 1453
1493 1506 1503 1502 1498 1499 1503 1504 1502 1507 1510 1518 1515 1516 1515 1513 1512 1511 1508 1505 1502 1498 1496 1493 1489 1486 1483 1479 1476 1473 1470 1467 1465 1462 1460 1458 1456 1455 1453 1452 1451 1449 1448 1447
1496 1505 1506 1507 1500 1503 1508 1507 1505 1506 1509 1511 1514 1518 1514 1512 1510 1507 1504 1501 1497 1494 1491 1487 1483 1480 1476 1473 1469 1466 1462 1459 1456 1454 1451 1450 1448 1446 1445 1444 1442 1441 1440 1439
1500 1505 1512 1515 1505 1505 1521 1514 1511 1512 1513 1513 1518 1518 1512 1510 1507 1504 1500 1497 1493 1489 1485 1481 1477 1473 1469 1465 1461 1457 1453 1450 1448 1445 1442 1441 1439 1437 1436 1435 1434 1433 1432 1431
1499 1506 1514 1517 1516 1525 1522 1509 1509 1513 1516 1514 1514 1513 1510 1507 1503 1500 1497 1493 1488 1484 1479 1475 1470 1465 1461 1457 1452 1448 1445 1441 1438 1435 1433 1431 1430 1428 1427 1426 1425 1424 1423 1423
1493 1502 1513 1522 1523 1522 1515 1511 1510 1512 1515 1513 1511 1509 1506 1502 1498 1495 1493 1489 1484 1478 1473 1468 1463 1458 1453 1449 1444 1440 1436 1432 1429 1426 1423 1422 1420 1418 1417 1416 1415 1415 1415 1414
1497 1501 1513 1520 1522 1526 1520 1510 1507 1508 1515 1511 1508 1506 1502 1498 1498 1491 1486 1482 1477 1472 1467 1462 1456 1451 1446 1441 1436 1431 1427 1423 1419 1416 1414 1412 1410 1408 1407 1406 1406 1406 1405 1405
1509 1513 1519 1523 1524 1521 1513 1508 1508 1519 1519 1509 1506 1503 1500 1497 1494 1486 1481 1476 1471 1466 1461 1455 1449 1444 1438 1433 1428 1422 1417 1413 1410 1406 1403 1401 1400 1398 1397 1396 1396 1396 1396 1396
1513 1519 1522 1525 1528 1526 1510 1509 1513 1515 1509 1506 1503 1500 1496 1492 1487 1481 1476 1471 1465 1459 1454 1448 1441 1435 1430 1424 1418 1412 1407 1403 1399 1395 1392 1390 1388 1387 1386 1386 1385 1386 1386 1387
1509 1511 1515 1518 1521 1512 1510 1510 1510 1509 1506 1503 1500 1496 1492 1487 1481 1476 1471 1465 1459 1453 1447 1441 1434 1427 1421 1415 1409 1403 1397 1393 1388 1384 1381 1379 1378 1376 1376 1375 1375 1376 1377 1377
1505 1503 1508 1512 1512 1510 1510 1509 1508 1506 1503 1500 1497 1493 1488 1483 1477 1472 1466 1460 1454 1447 1441 1433 1426 1418 1411 1406 1400 1393 1388 1382 1378 1374 1371 1369 1367 1366 1365 1365 1366 1366 1367 1368
1503 1503 1508 1511 1509 1508 1507 1506 1504 1502 1499 1496 1493 1489 1485 1479 1474 1468 1462 1455 1448 1441 1434 1427 1419 1411 1403 1396 1390 1384 1378 1373 1368 1364 1362 1360 1358 1357 1356 1356 1357 1358 1359 1361
1501 1503 1508 1510 1506 1506 1505 1504 1501 1499 1496 1493 1489 1485 1481 1476 1470 1464 1458 1451 1443 1436 1428 1420 1412 1404 1396 1388 1381 1375 1370 1365 1360 1355 1353 1351 1350 1349 1348 1349 1349 1350 1352 1354